Station MKGM4 - Muskegon CG Station, Muskegon, MI Image indicating link to RSS feed of recent meteorological observations for station MKGM4


Conditions at MKGM4 as of
(4:10 am EDT)
0810 GMT on 04/17/2024:
     

Click on the graph icon in the table below to see a time series plot of the last five days of that observation.

5-day plot - Wind Direction Wind Direction (WDIR): E ( 80 deg true )
5-day plot - Wind Speed Wind Speed (WSPD): 16 kts
5-day plot - Wind Gust Wind Gust (GST): 20 kts
5-day plot - Atmospheric Pressure Atmospheric Pressure (PRES):29.69 in
5-day plot - Air Temperature Air Temperature (ATMP): 54.3 °F
5-day plot - Dew Point Dew Point (DEWP): 45.5 °F
5-day plot -  Wind Speed, Wind Gust and Atmospheric Pressure Combined plot of Wind Speed, Gust, and Air Pressure
Previous observations
TIME
(EDT)
5-day plot - Wind Direction
WDIR
 
5-day plot - Wind Speed
WSPD
kts
5-day plot - Wind Gust
GST
kts
5-day plot - Wave Height
WVHT
ft
5-day plot - Dominant Wave Period
DPD
sec
5-day plot - Average Wave Period
APD
sec
5-day plot - Mean Wave Direction
MWD
 
5-day plot - Atmospheric Pressure
PRES
in
5-day plot - Pressure Tendency
PTDY
in
5-day plot - Air Temperature
ATMP
°F
5-day plot - Water Temperature
WTMP
°F
5-day plot - Dew Point
DEWP
°F
5-day plot - Salinity
SAL
psu
5-day plot - Visibility
VIS
nmi
5-day plot - Tide (above MLLW)
TIDE
ft
2024-04-17 04:00 am E 15 19----29.70-0.10 54.0- 45.7---
2024-04-17 03:50 am E 12 16----29.70- 53.6- 45.5---
2024-04-17 03:40 am E 13 18----29.70- 53.4- 45.5---
2024-04-17 03:30 am E 17 21----29.70- 53.2- 45.5---
2024-04-17 03:20 am E 16 20----29.70- 53.1- 45.3---
2024-04-17 03:10 am E 17 21----29.71- 52.9- 45.5---
2024-04-17 03:00 am E 17 21----29.71-0.09 52.7- 45.7---
2024-04-17 02:50 am E 17 21----29.72- 52.5- 46.0---
2024-04-17 02:40 am E 17 22----29.73- 52.7- 46.0---
2024-04-17 02:30 am E 18 24----29.74- 53.1- 46.0---
2024-04-17 02:20 am E 14 18----29.75- 53.2- 45.9---
2024-04-17 02:10 am E 19 22----29.75- 53.4- 45.7---
2024-04-17 02:00 am E 18 24----29.76-0.04 53.8- 45.5---
2024-04-17 01:50 am E 15 18----29.76- 54.0- 45.9---
2024-04-17 01:40 am E 17 21----29.76- 54.0- 46.0---
2024-04-17 01:30 am E 15 20----29.78- 54.7- 45.7---
2024-04-17 01:20 am E 15 20----29.78- 55.4- 45.5---
2024-04-17 01:10 am E 14 17----29.79- 55.6- 45.9---
2024-04-17 01:00 am E 15 20----29.80+0.04 56.3- 45.0---
2024-04-17 12:50 am E 15 20----29.81- 57.4- 44.6---
2024-04-17 12:40 am E 15 18----29.80- 57.7- 44.6---
2024-04-17 12:30 am E 15 20----29.80- 57.9- 44.8---
2024-04-17 12:20 am E 16 20----29.79- 58.8- 44.1---
2024-04-17 12:10 am E 18 24----29.80- 60.3- 42.8---
2024-04-17 12:00 am E 16 23----29.80+0.03 61.2- 41.9---
2024-04-16 11:50 pmESE 16 21----29.80- 61.5- 41.4---
2024-04-16 11:40 pm E 17 22----29.79- 61.7- 41.2---
2024-04-16 11:30 pm E 20 27----29.79- 61.9- 41.0---
2024-04-16 11:20 pm E 21 25----29.79- 61.3- 41.2---
2024-04-16 11:10 pm E 18 25----29.78- 60.4- 41.7---
2024-04-16 11:00 pm E 19 25----29.79-0.06 60.6- 41.4---
2024-04-16 10:50 pm E 20 22----29.80- 60.4- 41.4---
2024-04-16 10:40 pm E 20 27----29.78- 60.4- 41.2---
2024-04-16 10:30 pm E 22 29----29.78- 60.8- 40.8---
2024-04-16 10:20 pm E 22 29----29.77- 60.6- 40.8---
2024-04-16 10:10 pm E 23 31----29.76- 60.6- 41.0---
2024-04-16 10:00 pm E 21 29----29.76-0.05 60.6- 41.4---
2024-04-16 09:50 pm E 21 26----29.76- 60.6- 42.1---
2024-04-16 09:40 pm E 20 23----29.76- 61.0- 42.3---
2024-04-16 09:30 pm E 21 27----29.75- 61.0- 42.6---
2024-04-16 09:20 pm E 20 25----29.76- 61.0- 43.0---
2024-04-16 09:10 pm E 24 30----29.77- 61.5- 43.0---
2024-04-16 09:00 pm E 16 22----29.77-0.07 62.1- 43.3---
2024-04-16 08:50 pm E 25 30----29.78- 63.3- 42.1---
2024-04-16 08:40 pm E 20 26----29.80- 63.7- 41.9---
2024-04-16 08:30 pm E 19 26----29.81- 64.0- 41.5---
2024-04-16 08:20 pm E 20 27----29.82- 64.2- 41.7---
2024-04-16 08:10 pm E 17 25----29.84- 64.6- 41.4---
2024-04-16 08:00 pm E 20 23----29.85+0.00 66.6- 39.2---
2024-04-16 07:50 pm E 17 23----29.86- 67.3- 38.8---
2024-04-16 07:40 pm E 19 25----29.84- 68.0- 37.0---
2024-04-16 07:30 pm E 21 29----29.83- 67.6- 37.4---
2024-04-16 07:20 pm E 21 27----29.81- 68.0- 37.0---
2024-04-16 07:10 pm E 23 28----29.80- 68.2- 37.2---
2024-04-16 07:00 pm E 22 28----29.81-0.09 68.4- 37.2---
2024-04-16 06:50 pm E 18 25----29.82- 68.5- 37.2---
2024-04-16 06:40 pm E 22 28----29.83- 68.5- 37.0---
2024-04-16 06:30 pm E 21 29----29.83- 68.7- 37.4---
2024-04-16 06:20 pm E 18 24----29.84- 69.3- 36.9---
2024-04-16 06:10 pm E 21 26----29.84- 69.3- 36.5---
2024-04-16 06:00 pm E 20 24----29.84-0.10 69.1- 36.5---
2024-04-16 05:50 pm E 21 30----29.85- 69.1- 36.1---
2024-04-16 05:40 pm E 24 29----29.85- 68.9- 36.0---
2024-04-16 05:30 pm E 17 25----29.84- 69.3- 36.1---
2024-04-16 05:20 pm E 17 28----29.85- 69.1- 36.0---
2024-04-16 05:10 pm E 22 31----29.85- 68.7- 35.4---
2024-04-16 05:00 pm E 20 25----29.85-0.14 68.7- 35.6---
2024-04-16 04:50 pm E 18 25----29.86- 67.8- 36.1---
2024-04-16 04:40 pm E 21 26----29.88- 68.9- 34.5---
2024-04-16 04:30 pm E 17 25----29.88- 68.7- 35.6---
2024-04-16 04:20 pm E 15 20----29.89- 68.4- 35.2---
2024-04-16 04:10 pm E 20 24----29.90- 68.5- 34.0---
2024-04-16 04:00 pm E 18 24----29.91-0.12 68.7- 34.3---
2024-04-16 03:50 pm E 21 26----29.91- 68.2- 33.6---
2024-04-16 03:40 pm E 19 25----29.92- 68.5- 34.2---
2024-04-16 03:30 pm E 19 25----29.93- 68.9- 34.2---
2024-04-16 03:20 pm E 18 24----29.94- 67.8- 33.8---
2024-04-16 03:10 pm E 17 23----29.94- 68.4- 33.6---
2024-04-16 03:00 pm E 16 23----29.94-0.13 67.3- 35.4---
2024-04-16 02:50 pm E 15 22----29.95- 66.7- 35.6---
2024-04-16 02:40 pm E 18 23----29.96- 66.7- 34.2---
2024-04-16 02:30 pm E 16 21----29.97- 66.9- 34.2---
2024-04-16 02:20 pm E 13 18----29.98- 66.0- 35.4---
2024-04-16 02:10 pm E 14 20----29.99- 66.6- 33.8---
2024-04-16 02:00 pm E 14 18----30.00-0.10 65.8- 34.5---
2024-04-16 01:50 pm E 15 21----29.99- 66.0- 33.1---
2024-04-16 01:40 pm E 14 18----30.01- 65.1- 34.2---
2024-04-16 01:30 pm E 16 20----30.01- 64.4- 34.2---
2024-04-16 01:20 pm E 15 20----30.02- 64.2- 33.3---
2024-04-16 01:10 pm E 18 22----30.02- 63.0- 34.7---
2024-04-16 01:00 pm E 16 22----30.02-0.07 62.8- 34.2---
2024-04-16 12:50 pm E 14 21----30.03- 63.0- 33.4---
2024-04-16 12:40 pm E 13 19----30.05- 61.5- 34.5---
2024-04-16 12:30 pm E 14 18----30.06- 61.3- 33.8---
2024-04-16 12:20 pm E 15 20----30.07- 60.4- 33.6---
2024-04-16 12:10 pm E 15 19----30.07- 59.4- 33.3---
2024-04-16 12:00 pm E 13 18----30.08-0.05 59.2- 33.3---
2024-04-16 11:50 am E 18 22----30.09- 58.5- 32.2---
2024-04-16 11:40 am E 19 23----30.10- 57.9- 32.2---
2024-04-16 11:30 amESE 15 18----30.10- 57.6- 32.7---
2024-04-16 11:20 am E 15 19----30.10- 56.5- 33.1---
2024-04-16 11:10 am E 17 22----30.10- 55.6- 32.5---
2024-04-16 11:00 am E 18 23----30.09-0.03 55.2- 32.7---
2024-04-16 10:50 am E 21 25----30.09- 54.5- 32.5---
2024-04-16 10:40 am E 14 21----30.09- 54.0- 33.4---
2024-04-16 10:30 am E 18 24----30.09- 53.2- 32.9---
2024-04-16 10:20 am E 17 26----30.09- 53.1- 32.7---
2024-04-16 10:10 am E 17 23----30.10- 52.3- 32.4---
2024-04-16 10:00 am E 15 22----30.10+0.00 52.0- 32.4---
2024-04-16 09:50 am E 15 19----30.10- 51.6- 32.7---
2024-04-16 09:40 am E 16 20----30.11- 51.1- 32.4---
2024-04-16 09:30 am E 16 21----30.11- 50.5- 32.4---
2024-04-16 09:20 am E 17 21----30.12- 50.4- 32.4---
2024-04-16 09:10 am E 17 20----30.13- 49.8- 32.5---
2024-04-16 09:00 am E 17 21----30.13+0.04 49.6- 32.9---
2024-04-16 08:50 am E 14 17----30.13- 49.5- 34.0---
2024-04-16 08:40 am E 14 17----30.13- 49.1- 33.8---
2024-04-16 08:30 am E 14 17----30.13- 48.9- 34.2---
2024-04-16 08:20 am E 17 19----30.12- 48.6- 34.2---
2024-04-16 08:10 am E 17 22----30.12- 48.4- 33.8---
2024-04-16 08:00 am E 16 21----30.12+0.02 48.2- 34.0---
2024-04-16 07:50 am E 13 19----30.12- 48.0- 34.2---
2024-04-16 07:40 am E 13 20----30.12- 48.0- 34.7---
2024-04-16 07:30 am E 16 20----30.11- 48.0- 34.3---
2024-04-16 07:20 am E 13 18----30.10- 48.2- 34.5---
2024-04-16 07:10 am E 12 16----30.10- 48.2- 34.5---
2024-04-16 07:00 am E 13 18----30.10+0.00 48.2- 34.3---
2024-04-16 06:50 am E 14 18----30.09- 48.4- 34.7---
2024-04-16 06:40 amENE 14 20----30.09- 48.4- 35.1---
2024-04-16 06:30 amENE 15 19----30.08- 48.4- 35.2---
2024-04-16 06:20 amENE 13 17----30.08- 48.6- 35.8---
2024-04-16 06:10 am E 14 19----30.08- 48.7- 35.8---
2024-04-16 06:00 am E 13 16----30.08-0.03 48.7- 35.2---
2024-04-16 05:50 am E 13 16----30.09- 48.9- 35.2---
2024-04-16 05:40 am E 14 17----30.09- 49.1- 35.2---
2024-04-16 05:30 am E 15 19----30.09- 49.1- 35.2---
2024-04-16 05:20 am E 13 16----30.09- 49.1- 35.1---
2024-04-16 05:10 am E 12 17----30.09- 48.9- 35.6---
2024-04-16 05:00 amENE 11 13----30.10+0.00 48.4- 36.1---
2024-04-16 04:50 amENE 12 14----30.10- 48.2- 35.4---
2024-04-16 04:40 amENE 10 14----30.10- 48.4- 34.7---
2024-04-16 04:30 amENE 12 15----30.10- 48.6- 34.0---
2024-04-16 04:20 amENE 12 15----30.10- 48.7- 34.0---
2024-04-16 04:10 amENE 11 14----30.10- 48.6- 34.7---
2024-04-16 04:00 amENE 11 13----30.10+0.01 48.9- 34.2---
2024-04-16 03:50 amENE 11 14----30.10- 49.3- 33.4---